De Kooy, Netherlands

5:07 AM CEST on September 01, 2016 (GMT +0200)
De Kooy Navy

Weather History for EHKD - October, 2012

Change the Weather History Date:

Monday, October 22, 2012

  Actual Average Record
Temperature  
Mean Temperature 55 °F -  
Max Temperature 57 °F 51 °F 70 °F (2013)
Min Temperature 53 °F 42 °F 32 °F (1997)
Degree Days  
Heating Degree Days 10    
Growing Degree Days 5 (Base 50)    
Moisture  
Dew Point 55 °F    
Average Humidity 100    
Maximum Humidity 100    
Minimum Humidity 94    
Precipitation  
Precipitation 0.00 in 0.12 in - ()
Sea Level Pressure  
Sea Level Pressure 30.15 in    
Wind  
Wind Speed 7 mph ()    
Max Wind Speed 12 mph    
Max Gust Speed -    
Visibility 0.7 miles    
Events Fog    
Averages and records for this station are not official NWS values.
T = Trace of Precipitation, MM = Missing Value Source: Averaged Metar Reports

Daily Weather History Graph

Daily Weather History Graph

Search for Another Location

Airport or City:

Trip Planner

Search our weather history database for the weather conditions in past years. The results will help you decide how hot, cold, wet, or windy it might be!

Date:

Astronomy

Oct. 22, 2012 Rise Set
Actual Time 8:20 AM CEST 6:29 PM CEST
Civil Twilight 7:44 AM CEST 7:04 PM CEST
Nautical Twilight 7:04 AM CEST 7:44 PM CEST
Astronomical Twilight 6:24 AM CEST 8:24 PM CEST
Moon 3:19 PM CEST (10/22) No Moon Set
Length of Visible Light 11h 19m
Length of Day
10h 09m
First Quarter, 53% of the Moon is Illuminated
Oct 22
First Quarter
Oct 29
Full
Nov 7
Last Quarter
Nov 13
New
Nov 20
First Quarter

Hourly Weather History & Observations

Time (CEST) Temp. Dew Point Humidity Pressure Visibility Wind Dir Wind Speed Gust Speed Precip Events Conditions
12:25 AM 53.6 °F 53.6 °F 100% 30.06 in 0.2 mi East 11.5 mph - N/A Fog Fog
12:55 AM 53.6 °F 53.6 °F 100% 30.06 in 0.2 mi ENE 10.4 mph - N/A Fog Fog
1:25 AM 53.6 °F 53.6 °F 100% 30.06 in 0.2 mi East 10.4 mph - N/A Fog Fog
1:55 AM 53.6 °F 53.6 °F 100% 30.09 in 0.2 mi East 8.1 mph - N/A Fog Fog
2:00 AM 54 °F 54 °F 100% 30.09 in 0 mi East 8.9 mph - - Fog Fog
2:25 AM 53.6 °F 53.6 °F 100% 30.06 in 0.2 mi ENE 8.1 mph - N/A Fog Fog
2:55 AM 55.4 °F 55.4 °F 100% 30.06 in 0.2 mi East 8.1 mph - N/A Fog Fog
3:25 AM 55.4 °F 55.4 °F 100% 30.06 in 0.2 mi East 5.8 mph - N/A Fog Fog
3:55 AM 55.4 °F 55.4 °F 100% 30.09 in 0.2 mi East 5.8 mph - N/A Fog Fog
4:25 AM 55.4 °F 55.4 °F 100% 30.06 in 0.2 mi East 5.8 mph - N/A Fog Fog
4:55 AM 55.4 °F 55.4 °F 100% 30.06 in 0.2 mi East 6.9 mph - N/A Fog Fog
5:00 AM 55 °F 55 °F 99% 30.09 in 0 mi East 6.7 mph - - Fog Fog
5:25 AM 55.4 °F 55.4 °F 100% 30.09 in 0.2 mi ESE 4.6 mph - N/A Fog Fog
5:55 AM 55.4 °F 55.4 °F 100% 30.09 in 0.2 mi ESE 4.6 mph - N/A Fog Fog
6:25 AM 55.4 °F 55.4 °F 100% 30.09 in 0.2 mi SE 3.5 mph - N/A Fog Fog
6:55 AM 55.4 °F 55.4 °F 100% 30.09 in 0.2 mi East 4.6 mph - N/A Fog Fog
7:04 AM 55.4 °F 55.4 °F 100% 30.09 in 0.2 mi East 4.6 mph - N/A Fog Fog
7:25 AM 55.4 °F 55.4 °F 100% 30.09 in 0.2 mi East 4.6 mph - N/A Fog Fog
7:55 AM 53.6 °F 53.6 °F 100% 30.09 in 0.2 mi East 5.8 mph - N/A Fog Fog
8:25 AM 53.6 °F 53.6 °F 100% 30.09 in 0.2 mi ENE 4.6 mph - N/A Fog Fog
8:55 AM 53.6 °F 53.6 °F 100% 30.12 in 0.1 mi East 5.8 mph - N/A Fog Fog
9:25 AM 53.6 °F 53.6 °F 100% 30.12 in 0.1 mi East 4.6 mph - N/A Fog Fog
9:55 AM 53.6 °F 53.6 °F 100% 30.12 in 0.1 mi ESE 5.8 mph - N/A Fog Fog
10:25 AM 53.6 °F 53.6 °F 100% 30.12 in 0.1 mi ESE 4.6 mph - N/A Fog Fog
10:55 AM 53.6 °F 53.6 °F 100% 30.15 in 0.1 mi ESE 4.6 mph - N/A Fog Fog
11:00 AM 54 °F 54 °F 100% 30.16 in 0 mi ESE 4.5 mph - - Fog Fog
11:25 AM 55.4 °F 53.6 °F 94% 30.15 in 0.1 mi East 4.6 mph - N/A Fog Fog
11:55 AM 53.6 °F 53.6 °F 100% 30.15 in 0.1 mi East 3.5 mph - N/A Fog Fog
12:25 PM 55.4 °F 55.4 °F 100% 30.15 in 0.1 mi East 4.6 mph - N/A Fog Fog
12:55 PM 55.4 °F 55.4 °F 100% 30.15 in 0.1 mi East 4.6 mph - N/A Fog Fog
1:25 PM 55.4 °F 55.4 °F 100% 30.15 in 0.1 mi NE 3.5 mph - N/A Fog Fog
1:55 PM 55.4 °F 55.4 °F 100% 30.15 in 0.1 mi NE 5.8 mph - N/A Fog Fog
2:00 PM 54 °F 54 °F 100% 30.17 in 0 mi NE 6.7 mph - - Fog Fog
2:25 PM 55.4 °F 55.4 °F 100% 30.15 in - NE 8.1 mph - N/A Fog Fog
2:42 PM 55.4 °F 55.4 °F 100% 30.15 in - NE 8.1 mph - N/A   Overcast
2:43 PM 55.4 °F 55.4 °F 100% 30.15 in 2.2 mi NE 8.1 mph - N/A   Overcast
2:53 PM 55.4 °F 55.4 °F 100% 30.15 in 0.9 mi NE 8.1 mph - N/A   Mostly Cloudy
2:55 PM 55.4 °F 55.4 °F 100% 30.15 in 1.8 mi NE 8.1 mph - N/A   Mostly Cloudy
3:15 PM 55.4 °F 55.4 °F 100% 30.15 in - NE 9.2 mph - N/A   Mostly Cloudy
3:22 PM 55.4 °F 55.4 °F 100% 30.15 in - NE 8.1 mph - N/A   Overcast
3:25 PM 55.4 °F 55.4 °F 100% 30.15 in - NE 8.1 mph - N/A   Overcast
3:28 PM 55.4 °F 55.4 °F 100% 30.15 in 1.9 mi NE 9.2 mph - N/A   Overcast
3:32 PM 55.4 °F 55.4 °F 100% 30.15 in 1.9 mi NE 9.2 mph - N/A   Overcast
3:37 PM 55.4 °F 55.4 °F 100% 30.15 in - NE 8.1 mph - N/A   Mostly Cloudy
3:38 PM 55.4 °F 55.4 °F 100% 30.15 in 2.2 mi NE 8.1 mph - N/A   Mostly Cloudy
3:52 PM 55.4 °F 55.4 °F 100% 30.15 in - NE 8.1 mph - N/A   Mostly Cloudy
3:55 PM 55.4 °F 55.4 °F 100% 30.15 in - NE 8.1 mph - N/A   Mostly Cloudy
4:16 PM 55.4 °F 55.4 °F 100% 30.15 in - NE 8.1 mph - N/A   Mostly Cloudy
4:25 PM 55.4 °F 55.4 °F 100% 30.15 in - NE 9.2 mph - N/A   Overcast
4:55 PM 55.4 °F 55.4 °F 100% 30.15 in - NE 10.4 mph - N/A   Overcast
5:00 PM 55 °F 55 °F 100% 30.18 in 2 mi NE 11.2 mph - -   Mist
5:25 PM 55.4 °F 55.4 °F 100% 30.18 in 1.2 mi NE 9.2 mph - N/A   Mostly Cloudy
5:26 PM 55.4 °F 55.4 °F 100% 30.15 in 1.3 mi NE 9.2 mph - N/A   Overcast
5:35 PM 55.4 °F 55.4 °F 100% 30.18 in 1.4 mi NE 9.2 mph - N/A   Overcast
5:46 PM 55.4 °F 55.4 °F 100% 30.18 in 1.4 mi NE 6.9 mph - N/A   Overcast
5:55 PM 55.4 °F 55.4 °F 100% 30.18 in 1.4 mi NE 6.9 mph - N/A   Overcast
6:25 PM 55.4 °F 55.4 °F 100% 30.18 in 1.2 mi NE 6.9 mph - N/A   Mostly Cloudy
6:55 PM 55.4 °F 55.4 °F 100% 30.18 in 1.1 mi NE 5.8 mph - N/A   Mostly Cloudy
6:57 PM 55.4 °F 55.4 °F 100% 30.18 in 1.1 mi NE 5.8 mph - N/A   Partly Cloudy
7:25 PM 55.4 °F 55.4 °F 100% 30.18 in 1.3 mi ENE 5.8 mph - N/A   Overcast
7:55 PM 55.4 °F 55.4 °F 100% 30.18 in 1.2 mi NE 5.8 mph - N/A   Overcast
8:00 PM 55 °F 55 °F 100% 30.21 in 1 mi NE 6.7 mph - -   Mist
8:25 PM 55.4 °F 55.4 °F 100% 30.18 in 1.3 mi NE 6.9 mph - N/A   Overcast
8:33 PM 55.4 °F 55.4 °F 100% 30.21 in 1.3 mi NE 6.9 mph - N/A   Overcast
8:55 PM 55.4 °F 55.4 °F 100% 30.21 in 1.2 mi NE 6.9 mph - N/A   Overcast
8:58 PM 55.4 °F 55.4 °F 100% 30.21 in 1.2 mi NE 6.9 mph - N/A   Overcast
9:25 PM 55.4 °F 55.4 °F 100% 30.21 in 1.2 mi NE 6.9 mph - N/A   Overcast
9:55 PM 55.4 °F 55.4 °F 100% 30.21 in 1.1 mi NE 5.8 mph - N/A   Mostly Cloudy
10:01 PM 55.4 °F 55.4 °F 100% 30.21 in 0.9 mi NE 5.8 mph - N/A   Partly Cloudy
10:05 PM 55.4 °F 55.4 °F 100% 30.21 in 1.0 mi NE 5.8 mph - N/A   Mist
10:18 PM 55.4 °F 55.4 °F 100% 30.21 in 1.2 mi ENE 6.9 mph - N/A   Partly Cloudy
10:25 PM 55.4 °F 55.4 °F 100% 30.21 in 1.2 mi ENE 5.8 mph - N/A   Scattered Clouds
10:55 PM 55.4 °F 55.4 °F 100% 30.21 in 1.1 mi ENE 5.8 mph - N/A   Overcast
11:00 PM 55 °F 55 °F 100% 30.23 in 1 mi NE 4.5 mph - -   Mist
11:25 PM 57.2 °F 57.2 °F 100% 30.21 in 1.4 mi ENE 5.8 mph - N/A   Overcast
11:55 PM 57.2 °F 57.2 °F 100% 30.21 in 1.5 mi ENE 5.8 mph - N/A   Overcast